TimeEST,TemperatureF,Dew PointF,Humidity,Sea Level PressureIn,VisibilityMPH,Wind Direction,Wind SpeedMPH,Gust SpeedMPH,PrecipitationIn,Events,Conditions,WindDirDegrees,DateUTC
12:53 AM,32.0,30.9,96,30.10,0.5,Calm,Calm,-,0.01,Fog-Snow,Light Snow,0,2013-01-02 05:53:00
1:35 AM,30.2,30.2,100,30.06,1.5,Calm,Calm,-,0.00,,Overcast,0,2013-01-02 06:35:00
1:49 AM,30.2,30.2,100,30.06,2.0,Variable,3.5,-,0.00,,Overcast,0,2013-01-02 06:49:00
1:53 AM,30.9,30.0,96,30.09,2.5,Variable,3.5,-,0.00,,Overcast,0,2013-01-02 06:53:00
2:15 AM,30.2,30.2,100,30.06,4.0,Calm,Calm,-,N/A,,Overcast,0,2013-01-02 07:15:00
2:26 AM,30.2,30.2,100,30.07,2.5,Calm,Calm,-,N/A,,Overcast,0,2013-01-02 07:26:00
2:35 AM,30.2,30.2,100,30.07,4.0,Calm,Calm,-,N/A,,Overcast,0,2013-01-02 07:35:00
2:53 AM,30.9,30.0,96,30.10,3.0,Variable,3.5,-,N/A,,Overcast,0,2013-01-02 07:53:00
3:41 AM,30.2,30.2,100,30.07,1.8,Variable,3.5,-,N/A,,Overcast,0,2013-01-02 08:41:00
3:53 AM,30.9,30.0,96,30.11,1.2,Variable,3.5,-,N/A,,Overcast,0,2013-01-02 08:53:00
4:23 AM,30.2,28.4,93,30.08,2.0,NNW,4.6,-,N/A,,Overcast,340,2013-01-02 09:23:00
4:53 AM,30.0,28.0,92,30.12,1.8,Variable,4.6,-,N/A,,Overcast,0,2013-01-02 09:53:00
5:05 AM,30.2,28.4,93,30.10,1.5,Variable,4.6,-,N/A,,Overcast,0,2013-01-02 10:05:00
5:53 AM,30.0,28.9,96,30.14,1.8,Variable,3.5,-,N/A,,Overcast,0,2013-01-02 10:53:00
6:02 AM,30.2,28.4,93,30.11,2.5,Calm,Calm,-,N/A,,Overcast,0,2013-01-02 11:02:00
6:16 AM,30.2,28.4,93,30.11,3.0,North,3.5,-,N/A,,Overcast,10,2013-01-02 11:16:00
6:47 AM,28.4,28.4,100,30.12,2.5,Variable,3.5,-,N/A,,Overcast,0,2013-01-02 11:47:00
6:53 AM,28.4,28.4,100,30.12,2.0,Variable,3.5,-,N/A,,Overcast,0,2013-01-02 11:53:00
7:00 AM,28.4,28.4,100,30.14,1.8,Variable,3.5,-,N/A,,Overcast,0,2013-01-02 12:00:00
7:18 AM,28.4,28.4,100,30.14,2.0,Calm,Calm,-,N/A,,Overcast,0,2013-01-02 12:18:00
7:53 AM,28.9,27.0,92,30.18,3.0,Calm,Calm,-,N/A,,Overcast,0,2013-01-02 12:53:00
8:23 AM,28.4,26.6,93,30.15,3.0,NE,3.5,-,N/A,,Overcast,50,2013-01-02 13:23:00
8:53 AM,28.0,26.1,92,30.19,4.0,Calm,Calm,-,N/A,,Overcast,0,2013-01-02 13:53:00
9:03 AM,28.4,24.8,86,30.16,4.0,Calm,Calm,-,N/A,,Mostly Cloudy,0,2013-01-02 14:03:00
9:21 AM,28.4,26.6,93,30.16,4.0,Calm,Calm,-,N/A,,Mostly Cloudy,0,2013-01-02 14:21:00
9:31 AM,28.4,24.8,86,30.16,6.0,Calm,Calm,-,N/A,,Mostly Cloudy,0,2013-01-02 14:31:00
9:50 AM,30.2,26.6,86,30.17,6.0,Calm,Calm,-,N/A,,Mostly Cloudy,0,2013-01-02 14:50:00
9:53 AM,30.0,25.0,82,30.21,7.0,Calm,Calm,-,N/A,,Mostly Cloudy,0,2013-01-02 14:53:00
10:00 AM,28.4,24.8,86,30.18,9.0,Calm,Calm,-,N/A,,Scattered Clouds,0,2013-01-02 15:00:00
10:07 AM,30.2,24.8,80,30.19,9.0,Calm,Calm,-,N/A,,Mostly Cloudy,0,2013-01-02 15:07:00
10:51 AM,30.2,26.6,86,30.17,10.0,Calm,Calm,-,N/A,,Overcast,0,2013-01-02 15:51:00
10:53 AM,30.9,26.1,82,30.21,10.0,NNE,3.5,-,N/A,,Overcast,30,2013-01-02 15:53:00
11:48 AM,32.0,23.0,69,30.18,10.0,Calm,Calm,-,N/A,,Partly Cloudy,0,2013-01-02 16:48:00
11:53 AM,32.0,24.1,73,30.21,10.0,Calm,Calm,-,N/A,,Partly Cloudy,0,2013-01-02 16:53:00
12:48 PM,33.8,24.8,70,30.16,10.0,Calm,Calm,-,N/A,,Mostly Cloudy,0,2013-01-02 17:48:00
12:53 PM,34.0,24.1,67,30.19,10.0,Variable,3.5,-,N/A,,Mostly Cloudy,0,2013-01-02 17:53:00
1:53 PM,32.0,21.9,66,30.18,10.0,Calm,Calm,-,N/A,,Scattered Clouds,0,2013-01-02 18:53:00
2:53 PM,34.0,21.9,61,30.17,10.0,Calm,Calm,-,N/A,,Clear,0,2013-01-02 19:53:00
3:53 PM,34.0,21.0,59,30.18,10.0,Calm,Calm,-,N/A,,Clear,0,2013-01-02 20:53:00
4:53 PM,33.1,21.9,64,30.18,10.0,Calm,Calm,-,N/A,,Clear,0,2013-01-02 21:53:00
5:53 PM,32.0,19.4,60,30.15,10.0,Calm,Calm,-,N/A,,Clear,0,2013-01-02 22:53:00
6:53 PM,30.0,21.9,72,30.20,10.0,Calm,Calm,-,N/A,,Clear,0,2013-01-02 23:53:00
7:53 PM,30.0,21.0,69,30.21,10.0,Calm,Calm,-,N/A,,Clear,0,2013-01-03 00:53:00
8:53 PM,30.0,19.9,66,30.22,10.0,Calm,Calm,-,N/A,,Clear,0,2013-01-03 01:53:00
9:53 PM,28.9,19.0,67,30.22,10.0,Calm,Calm,-,N/A,,Clear,0,2013-01-03 02:53:00
10:53 PM,28.0,19.9,72,30.23,10.0,NNE,3.5,-,N/A,,Clear,20,2013-01-03 03:53:00
11:53 PM,28.4,19.4,69,30.18,10.0,Calm,Calm,-,N/A,,Clear,0,2013-01-03 04:53:00